RYR18M ELLX-EGSS

Flight info

Callsign RYR18M
Flight time N/A
Altitude 36000
Route LNO N852 TERLA L608 BUB M624 NIK DCT KOZUF DCT IMPOH DCT SASKI L608 SUMUM Y6 TOSVA
Aircraft B738/M-SDE3FGILRWY/SB1

Departure

Time 2026-05-04 12:49
Airport Luxembourg-Findel International Airport (ELLX)

Arrival

Time N/A
Airport London Stansted Airport (EGSS)
Time Latitude Longitude Altitude Speed Heading
2026-05-04 12:27 49.63156 6.21497 1195 ft 0 kts 240°
2026-05-04 12:38 49.63164 6.21518 1195 ft 2 kts 240°
2026-05-04 12:38 49.63172 6.21540 1195 ft 2 kts 237°
2026-05-04 12:39 49.63182 6.21560 1195 ft 2 kts 207°
2026-05-04 12:39 49.63195 6.21560 1195 ft 1 kts 150°
2026-05-04 12:39 49.63196 6.21559 1195 ft 0 kts 150°
2026-05-04 12:42 49.63181 6.21571 1195 ft 6 kts 153°
2026-05-04 12:42 49.63128 6.21617 1195 ft 12 kts 149°
2026-05-04 12:42 49.63104 6.21735 1196 ft 14 kts 62°
2026-05-04 12:42 49.63156 6.21903 1197 ft 20 kts 64°
2026-05-04 12:43 49.63225 6.22127 1198 ft 26 kts 65°
2026-05-04 12:43 49.63304 6.22382 1198 ft 26 kts 64°
2026-05-04 12:43 49.63386 6.22619 1198 ft 24 kts 60°
2026-05-04 12:43 49.63466 6.22835 1199 ft 23 kts 60°
2026-05-04 12:44 49.63544 6.23045 1199 ft 22 kts 60°
2026-05-04 12:44 49.63618 6.23245 1199 ft 22 kts 60°
2026-05-04 12:44 49.63649 6.23437 1203 ft 8 kts 137°
2026-05-04 12:44 49.63645 6.23442 1204 ft 0 kts 144°
2026-05-04 12:47 49.63634 6.23453 1206 ft 5 kts 146°
2026-05-04 12:47 49.63598 6.23484 1216 ft 6 kts 151°
2026-05-04 12:47 49.63559 6.23513 1228 ft 9 kts 166°
2026-05-04 12:48 49.63496 6.23447 1229 ft 6 kts 241°
2026-05-04 12:48 49.63468 6.23368 1227 ft 32 kts 240°
2026-05-04 12:48 49.63231 6.22732 1220 ft 103 kts 240°
2026-05-04 12:48 49.62768 6.21514 1233 ft 157 kts 239°
2026-05-04 12:49 49.62223 6.20078 1881 ft 158 kts 237°
2026-05-04 12:49 49.61632 6.18495 2313 ft 176 kts 236°
2026-05-04 12:49 49.61027 6.16867 3128 ft 170 kts 238°
2026-05-04 12:49 49.60473 6.15362 3839 ft 163 kts 237°